| time (UTC) | temp F | wind direction | speed MPH | gust MPH | rain 1hr in | rain 24hr in | rain mn in | humidity % | barometer mb |
| 20260905215132 | 56 | 238 | 7.0 | 13.0 | 0.00 | 0.71 | 0.25 | 85 | 1012.1 |
| 20260905214023 | 56 | 239 | 6.0 | 14.0 | 0.00 | 0.71 | 0.25 | 86 | 1012.1 |
| 20260905213047 | 56 | 236 | 7.0 | 15.0 | 0.00 | 0.71 | 0.25 | 86 | 1012.0 |
| 20260905212111 | 56 | 237 | 6.0 | 12.0 | 0.00 | 0.71 | 0.25 | 86 | 1012.0 |
| 20260905211031 | 56 | 244 | 6.0 | 13.0 | 0.00 | 0.71 | 0.25 | 86 | 1011.9 |
| 20260905210114 | 56 | 235 | 8.0 | 15.0 | 0.00 | 0.71 | 0.25 | 85 | 1011.9 |
| 20260905205118 | 56 | 232 | 8.0 | 13.0 | 0.00 | 0.71 | 0.25 | 85 | 1012.0 |
| 20260905204039 | 56 | 241 | 6.0 | 14.0 | 0.00 | 0.71 | 0.25 | 85 | 1011.9 |
| 20260905203104 | 56 | 241 | 8.0 | 13.0 | 0.00 | 0.71 | 0.25 | 86 | 1011.9 |
| 20260905202119 | 56 | 236 | 6.0 | 15.0 | 0.00 | 0.71 | 0.25 | 86 | 1011.9 |
| 20260905201048 | 56 | 246 | 6.0 | 12.0 | 0.00 | 0.71 | 0.25 | 86 | 1012.0 |
| 20260905200104 | 56 | 239 | 6.0 | 11.0 | 0.00 | 0.71 | 0.25 | 86 | 1011.9 |
| 20260905195024 | 56 | 241 | 6.0 | 12.0 | 0.00 | 0.71 | 0.25 | 86 | 1011.9 |
| 20260905194108 | 56 | 232 | 8.0 | 13.0 | 0.00 | 0.71 | 0.25 | 86 | 1012.0 |
| 20260905193111 | 56 | 235 | 6.0 | 13.0 | 0.00 | 0.71 | 0.25 | 85 | 1012.0 |
| 20260905192032 | 56 | 244 | 7.0 | 14.0 | 0.00 | 0.71 | 0.25 | 85 | 1011.9 |
| 20260905191055 | 57 | 236 | 8.0 | 13.0 | 0.00 | 0.71 | 0.25 | 85 | 1011.9 |
| 20260905190120 | 57 | 252 | 6.0 | 14.0 | 0.00 | 0.71 | 0.25 | 85 | 1011.9 |
| 20260905185120 | 57 | 236 | 6.0 | 12.0 | 0.01 | 0.71 | 0.25 | 84 | 1011.8 |
| 20260905184103 | 57 | 236 | 9.0 | 15.0 | 0.01 | 0.72 | 0.25 | 83 | 1011.8 |
| 20260905183119 | 57 | 235 | 9.0 | 16.0 | 0.01 | 0.72 | 0.25 | 84 | 1011.8 |
| 20260905182031 | 57 | 241 | 6.0 | 13.0 | 0.01 | 0.72 | 0.25 | 84 | 1011.7 |
| 20260905181105 | 57 | 246 | 6.0 | 16.0 | 0.01 | 0.72 | 0.25 | 84 | 1011.5 |
| 20260905180108 | 57 | 243 | 7.0 | 14.0 | 0.01 | 0.72 | 0.25 | 82 | 1011.4 |
| 20260905175024 | 57 | 245 | 8.0 | 14.0 | 0.00 | 0.71 | 0.24 | 81 | 1011.3 |
| 20260905174047 | 57 | 243 | 7.0 | 14.0 | 0.00 | 0.71 | 0.24 | 80 | 1011.3 |
| 20260905173111 | 57 | 232 | 9.0 | 15.0 | 0.00 | 0.71 | 0.24 | 79 | 1011.3 |
| 20260905172051 | 57 | 233 | 9.0 | 18.0 | 0.00 | 0.71 | 0.24 | 78 | 1011.2 |
| 20260905171056 | 57 | 240 | 7.0 | 15.0 | 0.00 | 0.71 | 0.24 | 78 | 1011.0 |
| 20260905170112 | 58 | 245 | 7.0 | 16.0 | 0.00 | 0.72 | 0.24 | 78 | 1011.2 |
| 20260905165031 | 58 | 234 | 9.0 | 15.0 | 0.00 | 0.72 | 0.24 | 77 | 1010.9 |
| 20260905164047 | 58 | 237 | 7.0 | 16.0 | 0.00 | 0.72 | 0.24 | 76 | 1010.8 |
| 20260905163103 | 59 | 237 | 9.0 | 17.0 | 0.00 | 0.72 | 0.24 | 75 | 1010.6 |
| 20260905162120 | 59 | 241 | 7.0 | 16.0 | 0.00 | 0.72 | 0.24 | 75 | 1010.4 |
| 20260905161040 | 60 | 244 | 8.0 | 18.0 | 0.00 | 0.72 | 0.24 | 74 | 1010.4 |
| 20260905155131 | 60 | 237 | 10.0 | 20.0 | 0.00 | 0.74 | 0.24 | 73 | 1010.2 |
| 20260905154024 | 60 | 241 | 11.0 | 18.0 | 0.00 | 0.76 | 0.24 | 73 | 1010.3 |
| 20260905153047 | 60 | 241 | 8.0 | 17.0 | 0.00 | 0.76 | 0.24 | 72 | 1010.4 |
| 20260905152055 | 61 | 233 | 10.0 | 21.0 | 0.00 | 0.77 | 0.24 | 71 | 1010.2 |
| 20260905151119 | 62 | 245 | 8.0 | 19.0 | 0.00 | 0.78 | 0.24 | 70 | 1010.2 |
| 20260905150059 | 61 | 240 | 11.0 | 21.0 | 0.00 | 0.81 | 0.24 | 72 | 1010.3 |
| 20260905145104 | 61 | 232 | 9.0 | 21.0 | 0.00 | 0.83 | 0.24 | 71 | 1010.4 |
| 20260905144121 | 61 | 234 | 12.0 | 20.0 | 0.00 | 0.85 | 0.24 | 70 | 1010.6 |
| 20260905143040 | 61 | 237 | 9.0 | 20.0 | 0.00 | 0.86 | 0.24 | 70 | 1010.3 |
| 20260905142104 | 60 | 236 | 16.0 | 21.0 | 0.00 | 0.87 | 0.24 | 70 | 1010.4 |
| 20260905141024 | 60 | 240 | 9.0 | 18.0 | 0.00 | 0.89 | 0.24 | 70 | 1010.3 |
| 20260905140048 | 60 | 244 | 9.0 | 23.0 | 0.00 | 0.92 | 0.24 | 69 | 1010.3 |
| 20260905135125 | 60 | 240 | 12.0 | 20.0 | 0.00 | 0.93 | 0.24 | 68 | 1010.3 |
| 20260905134051 | 58 | 243 | 10.0 | 19.0 | 0.00 | 0.94 | 0.24 | 72 | 1010.2 |
| 20260905133057 | 58 | 235 | 10.0 | 20.0 | 0.00 | 0.95 | 0.24 | 74 | 1010.4 |
| 20260905132113 | 59 | 232 | 12.0 | 21.0 | 0.00 | 0.95 | 0.24 | 74 | 1010.2 |
| 20260905131044 | 60 | 238 | 11.0 | 20.0 | 0.00 | 0.95 | 0.24 | 73 | 1010.2 |
| 20260905130110 | 60 | 231 | 15.0 | 24.0 | 0.00 | 0.95 | 0.24 | 74 | 1010.2 |
| 20260905125105 | 61 | 234 | 15.0 | 26.0 | 0.00 | 0.95 | 0.24 | 71 | 1010.1 |
| 20260905124119 | 60 | 238 | 13.0 | 25.0 | 0.00 | 0.95 | 0.24 | 75 | 1010.0 |
| 20260905123056 | 62 | 240 | 13.0 | 25.0 | 0.00 | 0.95 | 0.24 | 73 | 1009.9 |
| 20260905122054 | 60 | 250 | 8.0 | 20.0 | 0.00 | 0.95 | 0.24 | 81 | 1009.9 |
| 20260905121105 | 59 | 242 | 9.0 | 19.0 | 0.00 | 0.95 | 0.24 | 83 | 1009.8 |
| 20260905120023 | 59 | 238 | 11.0 | 20.0 | 0.00 | 0.95 | 0.23 | 81 | 1009.7 |
| 20260905115047 | 60 | 239 | 9.0 | 24.0 | 0.00 | 0.95 | 0.23 | 78 | 1009.6 |
| 20260905114055 | 62 | 235 | 14.0 | 24.0 | 0.00 | 0.95 | 0.23 | 74 | 1009.5 |
| 20260905113119 | 63 | 231 | 11.0 | 23.0 | 0.00 | 0.95 | 0.23 | 72 | 1009.4 |
| 20260905112039 | 61 | 232 | 10.0 | 26.0 | 0.00 | 0.95 | 0.23 | 76 | 1009.5 |
| 20260905111056 | 61 | 236 | 9.0 | 22.0 | 0.00 | 0.95 | 0.23 | 78 | 1009.5 |
| 20260905110111 | 60 | 241 | 12.0 | 21.0 | 0.00 | 0.95 | 0.23 | 80 | 1009.5 |
| 20260905105024 | 60 | 241 | 16.0 | 28.0 | 0.00 | 0.95 | 0.23 | 79 | 1009.3 |
| 20260905104049 | 60 | 239 | 13.0 | 32.0 | 0.00 | 0.95 | 0.23 | 80 | 1009.1 |
| 20260905103132 | 60 | 236 | 10.0 | 22.0 | 0.00 | 0.95 | 0.23 | 80 | 1009.0 |
| 20260905102030 | 60 | 244 | 9.0 | 20.0 | 0.00 | 0.95 | 0.23 | 82 | 1008.8 |
| 20260905101109 | 59 | 242 | 10.0 | 21.0 | 0.00 | 0.95 | 0.23 | 82 | 1008.8 |
| 20260905100111 | 57 | 247 | 8.0 | 15.0 | 0.00 | 0.95 | 0.23 | 83 | 1008.7 |
| 20260905095035 | 58 | 242 | 10.0 | 22.0 | 0.02 | 0.95 | 0.23 | 82 | 1008.7 |
| 20260905094121 | 59 | 242 | 12.0 | 32.0 | 0.02 | 0.95 | 0.23 | 82 | 1008.6 |
| 20260905093121 | 59 | 246 | 10.0 | 17.0 | 0.02 | 0.94 | 0.23 | 81 | 1008.4 |
| 20260905092031 | 59 | 240 | 11.0 | 23.0 | 0.03 | 0.94 | 0.23 | 80 | 1008.4 |
| 20260905091055 | 59 | 250 | 8.0 | 18.0 | 0.03 | 0.95 | 0.23 | 82 | 1008.2 |
| 20260905090133 | 58 | 235 | 10.0 | 21.0 | 0.03 | 0.97 | 0.23 | 83 | 1008.2 |
| 20260905085030 | 61 | 249 | 9.0 | 17.0 | 0.01 | 0.96 | 0.21 | 73 | 1007.8 |
| 20260905084055 | 61 | 242 | 11.0 | 20.0 | 0.01 | 0.95 | 0.21 | 73 | 1007.7 |
| 20260905083120 | 60 | 262 | 8.0 | 15.0 | 0.01 | 0.95 | 0.21 | 77 | 1007.6 |
| 20260905082038 | 62 | 254 | 9.0 | 14.0 | 0.00 | 0.94 | 0.20 | 70 | 1007.5 |
| 20260905081147 | 60 | 238 | 10.0 | 24.0 | 0.00 | 0.94 | 0.20 | 72 | 1007.5 |
| 20260905080112 | 60 | 243 | 11.0 | 23.0 | 0.00 | 0.94 | 0.20 | 74 | 1007.4 |
| 20260905075031 | 60 | 248 | 11.0 | 23.0 | 0.00 | 0.94 | 0.20 | 75 | 1007.3 |
| 20260905074055 | 60 | 255 | 9.0 | 16.0 | 0.00 | 0.94 | 0.20 | 76 | 1007.2 |
| 20260905073118 | 59 | 235 | 13.0 | 31.0 | 0.00 | 0.94 | 0.20 | 77 | 1006.9 |
| 20260905072100 | 59 | 240 | 8.0 | 20.0 | 0.00 | 0.94 | 0.20 | 82 | 1006.7 |
| 20260905071103 | 59 | 240 | 10.0 | 22.0 | 0.00 | 0.94 | 0.20 | 83 | 1006.7 |
| 20260905070023 | 59 | 247 | 9.0 | 18.0 | 0.00 | 0.94 | 0.20 | 84 | 1006.4 |
| 20260905065046 | 58 | 240 | 8.0 | 18.0 | 0.00 | 0.94 | 0.20 | 85 | 1006.2 |
| 20260905064111 | 58 | 231 | 11.0 | 22.0 | 0.01 | 0.94 | 0.20 | 86 | 1006.2 |
| 20260905063030 | 58 | 238 | 11.0 | 18.0 | 0.02 | 0.94 | 0.20 | 86 | 1006.2 |
| 20260905062055 | 57 | 244 | 9.0 | 20.0 | 0.06 | 0.94 | 0.20 | 87 | 1006.0 |
| 20260905061119 | 57 | 239 | 10.0 | 17.0 | 0.10 | 0.94 | 0.20 | 88 | 1006.1 |
| 20260905060038 | 57 | 238 | 12.0 | 20.0 | 0.11 | 0.95 | 0.20 | 89 | 1005.8 |
| 20260905055056 | 56 | 238 | 7.0 | 26.0 | 0.11 | 0.94 | 0.20 | 89 | 1005.7 |
| 20260905054121 | 56 | 237 | 10.0 | 15.0 | 0.10 | 0.94 | 0.19 | 91 | 1005.6 |
| 20260905053031 | 56 | 258 | 3.0 | 10.0 | 0.09 | 0.93 | 0.18 | 90 | 1005.5 |
| 20260905052054 | 57 | 243 | 8.0 | 17.0 | 0.05 | 0.89 | 0.14 | 89 | 1005.5 |
| 20260905051121 | 57 | 233 | 11.0 | 17.0 | 0.08 | 0.85 | 0.10 | 89 | 1005.2 |
| 20260905050031 | 57 | 242 | 9.0 | 19.0 | 0.09 | 0.84 | 0.09 | 89 | 1005.1 |
| 20260905045049 | 56 | 231 | 12.0 | 19.0 | 0.09 | 0.84 | 0.09 | 89 | 1005.1 |
| 20260905044111 | 57 | 232 | 9.0 | 20.0 | 0.09 | 0.84 | 0.09 | 89 | 1004.9 |
| 20260905043120 | 56 | 250 | 9.0 | 17.0 | 0.09 | 0.86 | 0.09 | 90 | 1004.9 |
| 20260905042039 | 56 | 240 | 8.0 | 25.0 | 0.09 | 0.93 | 0.09 | 90 | 1004.9 |
| 20260905041103 | 57 | 238 | 8.0 | 16.0 | 0.01 | 0.85 | 0.01 | 88 | 1004.8 |
| 20260905040025 | 57 | 245 | 9.0 | 19.0 | 0.00 | 0.84 | 0.00 | 86 | 1004.8 |
| 20260905035047 | 57 | 235 | 14.0 | 25.0 | 0.00 | 0.84 | 0.00 | 87 | 1004.6 |
| 20260905034114 | 57 | 233 | 13.0 | 19.0 | 0.00 | 0.84 | 0.00 | 85 | 1004.4 |
| 20260905033053 | 56 | 240 | 10.0 | 18.0 | 0.00 | 0.84 | 0.00 | 86 | 1004.5 |
| 20260905032056 | 56 | 237 | 7.0 | 13.0 | 0.00 | 0.84 | 0.00 | 86 | 1004.4 |
| 20260905031112 | 56 | 255 | 6.0 | 14.0 | 0.00 | 0.84 | 0.00 | 85 | 1004.2 |
| 20260905030031 | 57 | 244 | 7.0 | 20.0 | 0.00 | 0.84 | 0.00 | 81 | 1004.1 |
| 20260905025056 | 57 | 234 | 9.0 | 17.0 | 0.00 | 0.84 | 0.00 | 79 | 1004.1 |
| 20260905024120 | 57 | 248 | 9.0 | 15.0 | 0.00 | 0.84 | 0.00 | 79 | 1004.2 |
| 20260905023035 | 57 | 242 | 12.0 | 18.0 | 0.00 | 0.84 | 0.00 | 80 | 1004.2 |
| 20260905022056 | 57 | 250 | 10.0 | 20.0 | 0.00 | 0.84 | 0.00 | 80 | 1003.9 |
| 20260905021140 | 58 | 245 | 9.0 | 20.0 | 0.00 | 0.84 | 0.00 | 80 | 1003.8 |
| 20260905020100 | 58 | 255 | 10.0 | 21.0 | 0.00 | 0.84 | 0.00 | 82 | 1003.7 |
| 20260905015104 | 58 | 246 | 10.0 | 20.0 | 0.00 | 0.84 | 0.00 | 83 | 1003.6 |
| 20260905014027 | 58 | 243 | 8.0 | 25.0 | 0.00 | 0.84 | 0.00 | 84 | 1003.6 |
| 20260905013047 | 59 | 241 | 13.0 | 21.0 | 0.00 | 0.84 | 0.00 | 81 | 1003.5 |
| 20260905012127 | 59 | 244 | 12.0 | 23.0 | 0.00 | 0.84 | 0.00 | 83 | 1003.1 |
| 20260905011054 | 59 | 252 | 8.0 | 24.0 | 0.00 | 0.84 | 0.00 | 82 | 1003.0 |
| 20260905010056 | 59 | 253 | 9.0 | 22.0 | 0.00 | 0.84 | 0.00 | 84 | 1002.9 |
| 20260905005122 | 59 | 269 | 9.0 | 23.0 | 0.00 | 0.84 | 0.00 | 84 | 1002.8 |
| 20260905004101 | 59 | 243 | 13.0 | 28.0 | 0.00 | 0.84 | 0.00 | 84 | 1002.6 |
| 20260905003107 | 59 | 253 | 13.0 | 28.0 | 0.00 | 0.87 | 0.00 | 85 | 1002.6 |
| 20260905002022 | 59 | 240 | 13.0 | 24.0 | 0.01 | 0.87 | 0.00 | 85 | 1002.4 |
| 20260905001047 | 60 | 251 | 12.0 | 31.0 | 0.02 | 0.87 | 0.00 | 85 | 1002.2 |
| 20260905000111 | 60 | 234 | 10.0 | 21.0 | 0.13 | 0.87 | 0.00 | 87 | 1002.1 |
| 20260904235050 | 60 | 241 | 12.0 | 21.0 | 0.34 | 0.87 | 0.87 | 88 | 1001.8 |
| 20260904234054 | 60 | 247 | 9.0 | 24.0 | 0.40 | 0.87 | 0.87 | 89 | 1001.6 |
| 20260904233200 | 60 | 250 | 8.0 | 21.0 | 0.45 | 0.87 | 0.87 | 91 | 1001.5 |
| 20260904232039 | 60 | 254 | 8.0 | 15.0 | 0.45 | 0.86 | 0.86 | 91 | 1001.6 |
| 20260904231123 | 60 | 248 | 8.0 | 14.0 | 0.44 | 0.85 | 0.85 | 91 | 1001.4 |
| 20260904230043 | 60 | 268 | 5.0 | 9.0 | 0.33 | 0.74 | 0.74 | 91 | 1001.5 |
| 20260904225107 | 60 | 258 | 4.0 | 15.0 | 0.11 | 0.53 | 0.53 | 90 | 1001.5 |
| 20260904224111 | 60 | 235 | 7.0 | 13.0 | 0.06 | 0.47 | 0.47 | 90 | 1001.7 |
| 20260904223026 | 61 | 269 | 3.0 | 8.0 | 0.01 | 0.42 | 0.42 | 90 | 1001.7 |
| 20260904222048 | 61 | 251 | 5.0 | 10.0 | 0.00 | 0.41 | 0.41 | 89 | 1001.7 |
| 20260904221112 | 61 | 244 | 6.0 | 11.0 | 0.00 | 0.41 | 0.41 | 89 | 1001.6 |
| 20260904220031 | 61 | 241 | 7.0 | 11.0 | 0.00 | 0.41 | 0.41 | 89 | 1001.5 |